Location: Melque
(41.0517°N, 4.4694°W)
Time: 02:11:24
(UTC+00:00)

Meteor 1-20 Rocket - Pass Details

Date: 11 December 2025
Orbit: 818 x 890 km, 81.2° (Epoch: 14 January)

Event Time Altitude Azimuth Distance (km) Brightness Sun altitude
Rises 17:35:24 0° 351° (N) 3,358 7.2 -8.6°
Reaches altitude 10° 17:37:48 10° 353° (N) 2,420 6.4 -9.0°
Maximum altitude 17:43:16 79° 80° (E) 839 4.1 -9.9°
Drops below altitude 10° 17:48:44 10° 167° (SSE) 2,416 6.7 -10.9°
Sets 17:51:08 0° 169° (S) 3,352 7.4 -11.3°
